Terminal Aerodrome Forecast
Issued by NWS Chicago, IL

Home | Current Version | Previous Version | Text Only | Print | Product List | Glossary On
Versions: 1 2 3 4 5 6 7 8 9 10 11 12 13 14 15 16 17 18 19 20 21 22 23 24 25 26 27 28 29 30 31 32 33
000
FTUS43 KLOT 312200 AAB
TAFRFD
TAF AMD
KRFD 312202Z 3122/0118 VRB04KT P6SM OVC025
     FM010000 VRB04KT 6SM BR VCSH SCT015 OVC020
     FM010100 VRB03KT 1 1/2SM -SN SCT007 OVC015
      TEMPO 0101/0102 2SM -RAPL
     FM010400 02007KT 1SM -SN OVC007
     FM010700 05011KT 1/2SM SN OVC007
     FM011500 06017G27KT 1/2SM SN OVC005=

USA.gov is the U.S. government's official web portal to all federal, state and local government web resources and services.